EW5212 Weather Reports


time (UTC)temp
F
wind
direction
speed
knots
gust
knots
rain 1hr
in
rain 24hr
in
rain mn
in
humidity
%
barometer
mb
20260902112555 73 0.0 0.0 0.00 0.00 0.00 100 1018.5
20260902111515 73 0.0 0.0 0.00 0.00 0.00 100 1018.5
20260902110535 73 0.0 0.0 0.00 0.00 0.00 100 1018.5
20260902105515 73 0.0 0.0 0.00 0.00 0.00 100 1018.5
20260902104535 73 0.0 0.0 0.00 0.00 0.00 100 1018.3
20260902103515 74 0.0 0.0 0.00 0.00 0.00 100 1018.3
20260902102536 74 0.0 0.0 0.00 0.00 0.00 100 1018.4
20260902101515 74 0.0 0.0 0.00 0.00 0.00 100 1018.2
20260902100555 74 0.0 0.0 0.00 0.00 0.00 100 1018.1
20260902095535 73 0.0 0.0 0.00 0.00 0.00 100 1017.9
20260902094515 73 0.0 0.0 0.00 0.00 0.00 100 1018.0
20260902093517 73 0.0 0.0 0.00 0.00 0.00 100 1018.0
20260902092517 73 0.0 0.0 0.00 0.00 0.00 100 1017.9
20260902091517 73 0.0 0.0 0.00 0.00 0.00 100 1017.9
20260902090517 73 0.0 0.0 0.00 0.00 0.00 100 1017.9
20260902085517 73 0.0 0.0 0.00 0.00 0.00 100 1017.9
20260902084517 72 0.0 0.0 0.00 0.00 0.00 100 1017.8
20260902083518 72 0.0 0.0 0.00 0.00 0.00 100 1017.8
20260902082517 72 0.0 0.0 0.00 0.00 0.00 100 1017.9
20260902081537 72 0.0 0.0 0.00 0.00 0.00 100 1017.7
20260902080517 72 0.0 0.0 0.00 0.00 0.00 100 1017.7
20260902075517 72 0.0 0.0 0.00 0.00 0.00 99 1017.7
20260902074537 72 0.0 0.0 0.00 0.00 0.00 100 1017.7
20260902073517 73 0.0 0.0 0.00 0.00 0.00 100 1017.7
20260902072517 72 0.0 0.0 0.00 0.00 0.00 99 1017.8
20260902071558 72 0.0 0.0 0.00 0.00 0.00 99 1017.7
20260902070517 72 0.0 0.0 0.00 0.00 0.00 99 1017.7
20260902065517 72 0.0 0.0 0.00 0.00 0.00 99 1017.7
20260902064517 73 0.0 0.0 0.00 0.00 0.00 99 1017.6
20260902063516 73 0.0 0.0 0.00 0.00 0.00 99 1017.5
20260902062517 73 0.0 0.0 0.00 0.00 0.00 99 1017.6
20260902061518 73 0.0 0.0 0.00 0.00 0.00 99 1017.6
20260902060517 73 0.0 0.0 0.00 0.00 0.00 99 1017.7
20260902055516 73 0.0 0.0 0.00 0.00 0.00 99 1017.4
20260902054517 73 0.0 0.0 0.00 0.00 0.00 98 1017.5
20260902053537 73 0.0 0.0 0.00 0.00 0.00 99 1017.5
20260902052537 73 0.0 0.0 0.00 0.00 0.00 98 1017.5
20260902051516 74 0.0 0.0 0.00 0.00 0.00 98 1017.6
20260902050522 74 0.0 0.0 0.00 0.00 0.00 98 1017.7
20260902045517 74 0.0 0.0 0.00 0.00 0.00 98 1017.6
20260902044536 74 0.0 0.0 0.00 0.00 0.00 98 1017.5
20260902043517 74 0.0 0.0 0.00 0.00 0.00 98 1017.3
20260902042517 74 0.0 0.0 0.00 0.00 0.00 98 1017.4
20260902041537 75 0.0 0.0 0.00 0.00 0.00 98 1017.3
20260902040516 75 0.0 0.0 0.00 0.00 0.00 98 1017.2
20260902035517 75 0.0 0.0 0.00 0.00 0.00 98 1017.2
20260902034537 75 0.0 0.0 0.00 0.00 0.00 98 1017.0
20260902033516 75 0.0 0.0 0.00 0.00 0.00 97 1016.8
20260902032517 75 0.0 0.0 0.00 0.00 0.00 97 1016.7
20260902031516 75 0.0 0.0 0.00 0.00 0.00 97 1016.7
20260902030516 76 0.0 0.0 0.00 0.00 0.00 97 1016.8
20260902025517 76 0.0 0.0 0.00 0.00 0.00 97 1016.8
20260902024517 76 0.0 0.0 0.00 0.00 0.00 97 1016.8
20260902023516 76 0.0 0.0 0.00 0.00 0.00 96 1016.7
20260902022517 76 0.0 0.0 0.00 0.00 0.00 96 1016.9
20260902021516 76 0.0 0.0 0.00 0.00 0.00 96 1016.9
20260902020516 76 0.0 0.0 0.00 0.00 0.00 95 1016.8
20260902015516 77 0.0 0.0 0.00 0.00 0.00 95 1016.7
20260902014536 77 0.0 0.0 0.00 0.00 0.00 95 1016.5
20260902013517 77 0.0 0.0 0.00 0.00 0.00 95 1016.3
20260902012517 77 0.0 0.0 0.00 0.00 0.00 95 1016.1
20260902011516 78 0.0 0.0 0.00 0.00 0.00 94 1016.0
20260902010516 78 0.0 0.0 0.00 0.00 0.00 94 1015.9
20260902005516 79 0.0 0.0 0.00 0.00 0.00 93 1015.9
20260902004536 79 0.0 0.0 0.00 0.00 0.00 92 1015.8
20260902003517 80 0.0 0.0 0.00 0.00 0.00 91 1015.6
20260902002516 80 0.0 0.0 0.00 0.00 0.00 90 1015.6
20260902001516 80 0.0 0.0 0.00 0.00 0.00 89 1015.6
20260902000516 81 0.0 0.0 0.00 0.00 0.00 89 1015.6
20260901235517 82 0.0 0.0 0.00 0.00 0.00 87 1015.6
20260901234516 83 0.0 0.0 0.00 0.00 0.00 86 1015.7
20260901233536 84 0.0 0.0 0.00 0.00 0.00 83 1015.6
20260901232536 85 0.0 0.0 0.00 0.00 0.00 83 1015.7
20260901231516 86 0.0 0.0 0.00 0.00 0.00 80 1015.7
20260901230516 88 0.0 0.9 0.00 0.00 0.00 78 1015.8
20260901225516 91 0.0 0.0 0.00 0.00 0.00 73 1015.8
20260901224516 92 0.0 0.9 0.00 0.00 0.00 72 1015.9
20260901223516 93 0.0 0.0 0.00 0.00 0.00 71 1015.9
20260901222516 93 0.0 0.0 0.00 0.00 0.00 69 1015.9
20260901221516 95 0.0 0.9 0.00 0.00 0.00 65 1016.0
20260901220516 95 0.0 0.0 0.00 0.00 0.00 64 1016.1
20260901215516 94 0.0 0.9 0.00 0.00 0.00 68 1016.2
20260901214516 94 0.0 0.9 0.00 0.00 0.00 67 1016.2
20260901213518 96 0.0 0.0 0.00 0.00 0.00 66 1016.2
20260901212516 96 0.0 0.0 0.00 0.00 0.00 64 1016.1
20260901211516 96 0.0 0.0 0.00 0.00 0.00 63 1016.2
20260901210516 95 0.0 1.7 0.00 0.00 0.00 63 1016.3
20260901205516 95 0.0 1.7 0.00 0.00 0.00 62 1016.4
20260901204516 95 0.0 0.9 0.00 0.00 0.00 61 1016.4
20260901203536 95 0.0 1.7 0.00 0.00 0.00 59 1016.4
20260901202516 95 0.0 0.9 0.00 0.00 0.00 63 1016.5
20260901201516 94 0.0 0.0 0.00 0.00 0.00 64 1016.6
20260901200516 95 0.0 0.0 0.00 0.00 0.00 62 1016.9
20260901195516 95 0.0 0.0 0.00 0.00 0.00 61 1016.9
20260901194516 94 0.0 1.7 0.00 0.00 0.00 61 1016.9
20260901193516 94 45 0.9 1.7 0.00 0.00 0.00 64 1016.9
20260901192516 93 0.0 0.9 0.00 0.00 0.00 62 1016.9
20260901191516 95 0.0 0.9 0.00 0.00 0.00 61 1017.1
20260901190616 95 0.0 1.7 0.00 0.00 0.00 59 1017.2
20260901185516 93 0.0 1.7 0.00 0.00 0.00 61 1017.4
20260901184515 93 0.0 0.9 0.00 0.00 0.00 64 1017.3
20260901183515 94 0.0 0.0 0.00 0.00 0.00 64 1017.5
20260901182516 95 45 0.9 2.6 0.00 0.00 0.00 63 1017.6
20260901181516 95 0.0 0.9 0.00 0.00 0.00 62 1017.7
20260901180536 95 0.0 0.9 0.00 0.00 0.00 63 1017.4
20260901175516 95 45 0.9 1.7 0.00 0.00 0.00 60 1017.4
20260901174516 96 113 0.9 0.9 0.00 0.00 0.00 59 1017.3
20260901173516 94 68 0.9 1.7 0.00 0.00 0.00 63 1017.4
20260901172516 94 0 0.9 1.7 0.00 0.00 0.00 64 1017.4
20260901171516 94 45 0.9 1.7 0.00 0.00 0.00 63 1017.4
20260901170516 95 293 0.9 1.7 0.00 0.00 0.00 63 1017.4
20260901165516 94 68 0.9 1.7 0.00 0.00 0.00 64 1017.6
20260901164516 93 45 0.9 1.7 0.00 0.00 0.00 68 1017.7
20260901163536 93 45 0.9 1.7 0.00 0.00 0.00 67 1017.9
20260901162536 94 315 0.9 2.6 0.00 0.00 0.00 67 1018.1
20260901161516 93 270 0.9 3.5 0.00 0.00 0.00 66 1018.4
20260901160516 93 338 0.9 1.7 0.00 0.00 0.00 68 1018.4
20260901155516 93 270 0.9 2.6 0.00 0.00 0.00 68 1018.5
20260901154515 91 270 0.9 3.5 0.00 0.00 0.00 71 1018.5
20260901153515 91 45 0.9 4.3 0.00 0.00 0.00 70 1018.7
20260901152516 91 225 0.9 3.5 0.00 0.00 0.00 71 1018.7
20260901151535 91 23 0.9 3.5 0.00 0.00 0.00 72 1018.7
20260901150516 90 0 0.9 0.9 0.00 0.00 0.00 74 1018.9
20260901145515 90 270 1.7 4.3 0.00 0.00 0.00 72 1018.9
20260901144535 89 0.0 0.0 0.00 0.00 0.00 76 1018.9
20260901143516 89 0.0 1.7 0.00 0.00 0.00 78 1018.9
20260901142516 87 248 0.9 4.3 0.00 0.00 0.00 78 1018.8
20260901141516 87 0.0 5.2 0.00 0.00 0.00 78 1018.8
20260901140515 86 0.0 3.5 0.00 0.00 0.00 79 1018.8
20260901135516 85 0.0 0.9 0.00 0.00 0.00 84 1018.8
20260901134515 83 0.0 1.7 0.00 0.00 0.00 85 1018.8
20260901133516 82 0.0 0.9 0.00 0.00 0.00 87 1018.8
20260901132518 81 0.0 0.9 0.00 0.00 0.00 91 1018.8
20260901131515 79 0.0 0.9 0.00 0.00 0.00 96 1018.8
20260901130516 77 0.0 0.9 0.00 0.00 0.00 100 1019.0
20260901125515 76 0.0 0.0 0.00 0.00 0.00 100 1019.0
20260901124535 75 0.0 0.0 0.00 0.00 0.00 100 1018.8
20260901123515 74 0.0 0.0 0.00 0.00 0.00 100 1018.8
20260901122515 74 0.0 0.0 0.00 0.00 0.00 100 1018.8
20260901121515 73 0.0 0.0 0.00 0.00 0.00 100 1018.8
20260901120516 72 0.0 0.0 0.00 0.00 0.00 100 1018.8
20260901115515 72 0.0 0.0 0.00 0.00 0.00 100 1018.8
20260901114515 72 0.0 0.0 0.00 0.00 0.00 100 1018.8
20260901113515 71 0.0 0.0 0.00 0.00 0.00 100 1018.7